THY5YN LTFM-LQSA

Flight info

Callsign THY5YN
Flight time 1h 29m
Altitude 34000
Route VADEN1D/35L VADEN N618 GOL Y520 LUKOV Q8 DOLAP DCT OBLAK DCT VEBAR
Aircraft B739/M-SDE2E3FGHIRWXY/LB1

Departure

Time 2026-05-05 10:30
Airport İstanbul Airport (LTFM)

Arrival

Time 2026-05-05 11:59
Airport Sarajevo International Airport (LQSA)
Time Latitude Longitude Altitude Speed Heading
2026-05-05 09:26 41.26371 28.73834 325 ft 0 kts 244°
2026-05-05 10:13 41.26378 28.73853 312 ft 3 kts 242°
2026-05-05 10:13 41.26388 28.73876 311 ft 3 kts 242°
2026-05-05 10:13 41.26397 28.73900 311 ft 3 kts 248°
2026-05-05 10:13 41.26402 28.73921 310 ft 3 kts 256°
2026-05-05 10:14 41.26404 28.73946 312 ft 3 kts 289°
2026-05-05 10:14 41.26397 28.73969 310 ft 2 kts 284°
2026-05-05 10:14 41.26397 28.73971 312 ft 0 kts 283°
2026-05-05 10:20 41.26397 28.73970 310 ft 1 kts 284°
2026-05-05 10:20 41.26404 28.73951 311 ft 4 kts 303°
2026-05-05 10:21 41.26429 28.73927 312 ft 5 kts 333°
2026-05-05 10:21 41.26461 28.73909 312 ft 5 kts 341°
2026-05-05 10:21 41.26494 28.73894 312 ft 5 kts 341°
2026-05-05 10:21 41.26527 28.73880 312 ft 5 kts 342°
2026-05-05 10:22 41.26565 28.73875 312 ft 7 kts 359°
2026-05-05 10:22 41.26616 28.73874 312 ft 9 kts 360°
2026-05-05 10:22 41.26689 28.73874 312 ft 12 kts 359°
2026-05-05 10:22 41.26776 28.73872 312 ft 13 kts 359°
2026-05-05 10:23 41.26866 28.73869 311 ft 13 kts 359°
2026-05-05 10:23 41.26944 28.73858 311 ft 10 kts 326°
2026-05-05 10:23 41.26960 28.73772 311 ft 10 kts 269°
2026-05-05 10:23 41.26959 28.73680 311 ft 10 kts 269°
2026-05-05 10:24 41.26958 28.73575 311 ft 12 kts 269°
2026-05-05 10:24 41.26957 28.73451 312 ft 14 kts 269°
2026-05-05 10:24 41.26955 28.73312 312 ft 16 kts 269°
2026-05-05 10:24 41.26954 28.73166 309 ft 15 kts 269°
2026-05-05 10:25 41.26952 28.73044 309 ft 11 kts 268°
2026-05-05 10:25 41.26900 28.72991 310 ft 10 kts 184°
2026-05-05 10:25 41.26829 28.72990 311 ft 10 kts 180°
2026-05-05 10:25 41.26761 28.72991 311 ft 9 kts 179°
2026-05-05 10:26 41.26721 28.72964 311 ft 3 kts 244°
2026-05-05 10:26 41.26718 28.72937 314 ft 3 kts 264°
2026-05-05 10:26 41.26717 28.72910 315 ft 3 kts 269°
2026-05-05 10:26 41.26717 28.72884 317 ft 3 kts 269°
2026-05-05 10:27 41.26716 28.72858 319 ft 3 kts 269°
2026-05-05 10:27 41.26716 28.72828 321 ft 4 kts 269°
2026-05-05 10:27 41.26715 28.72776 323 ft 8 kts 270°
2026-05-05 10:27 41.26715 28.72698 324 ft 8 kts 269°
2026-05-05 10:28 41.26714 28.72613 323 ft 9 kts 269°
2026-05-05 10:28 41.26713 28.72547 324 ft 5 kts 269°
2026-05-05 10:28 41.26730 28.72516 322 ft 4 kts 344°
2026-05-05 10:28 41.26748 28.72515 322 ft 1 kts 360°
2026-05-05 10:29 41.26758 28.72515 323 ft 1 kts 360°
2026-05-05 10:29 41.26789 28.72515 321 ft 9 kts 360°
2026-05-05 10:29 41.26885 28.72515 322 ft 20 kts 359°
2026-05-05 10:29 41.27264 28.72507 316 ft 90 kts 359°
2026-05-05 10:30 41.28097 28.72490 311 ft 147 kts 359°
2026-05-05 10:30 41.29225 28.72468 653 ft 164 kts 359°
2026-05-05 10:30 41.29991 28.72452 1174 ft 165 kts
2026-05-05 10:30 41.31168 28.72463 1836 ft 170 kts
2026-05-05 10:31 41.32366 28.72480 2449 ft 181 kts 360°
2026-05-05 10:31 41.33692 28.72480 2740 ft 202 kts 360°
2026-05-05 10:31 41.35161 28.72494 3071 ft 221 kts
2026-05-05 10:31 41.36778 28.72522 3339 ft 244 kts 359°
2026-05-05 10:32 41.38507 28.72265 3926 ft 257 kts 347°
2026-05-05 10:32 41.40164 28.71457 5013 ft 250 kts 333°
2026-05-05 10:32 41.41574 28.70056 5822 ft 260 kts 316°
2026-05-05 10:32 41.42653 28.68092 6631 ft 266 kts 304°
2026-05-05 10:33 41.43532 28.65913 7466 ft 267 kts 301°
2026-05-05 10:33 41.44389 28.63712 8307 ft 268 kts 302°
2026-05-05 10:33 41.45277 28.61514 9115 ft 271 kts 303°
2026-05-05 10:33 41.46195 28.59306 9909 ft 273 kts 303°
2026-05-05 10:34 41.47140 28.57085 10607 ft 277 kts 304°
2026-05-05 10:34 41.48109 28.54844 11286 ft 281 kts 304°
2026-05-05 10:34 41.49100 28.52577 11976 ft 285 kts 304°
2026-05-05 10:34 41.50112 28.50279 12664 ft 289 kts 304°
2026-05-05 10:35 41.51140 28.47956 13356 ft 293 kts 305°
2026-05-05 10:35 41.52187 28.45600 14023 ft 297 kts 305°
2026-05-05 10:35 41.53246 28.43220 14662 ft 299 kts 305°
2026-05-05 10:35 41.54312 28.40827 15316 ft 301 kts 305°
2026-05-05 10:36 41.55385 28.38418 15964 ft 303 kts 305°
2026-05-05 10:36 41.56468 28.35990 16602 ft 306 kts 305°
2026-05-05 10:36 41.57547 28.33567 17205 ft 309 kts 305°
2026-05-05 10:36 41.58650 28.31093 17847 ft 312 kts 305°
2026-05-05 10:37 41.59763 28.28592 18473 ft 314 kts 305°
2026-05-05 10:37 41.60885 28.26072 19007 ft 317 kts 305°
2026-05-05 10:37 41.62019 28.23523 19545 ft 320 kts 304°
2026-05-05 10:37 41.63161 28.20952 20080 ft 323 kts 304°
2026-05-05 10:38 41.64314 28.18355 20619 ft 326 kts 304°
2026-05-05 10:38 41.65478 28.15730 21163 ft 329 kts 304°
2026-05-05 10:38 41.66652 28.13082 21697 ft 332 kts 304°
2026-05-05 10:38 41.67835 28.10408 22231 ft 335 kts 303°
2026-05-05 10:39 41.69028 28.07713 22769 ft 338 kts 303°
2026-05-05 10:39 41.70229 28.04995 23306 ft 341 kts 303°
2026-05-05 10:39 41.71441 28.02250 23807 ft 344 kts 303°
2026-05-05 10:39 41.72661 27.99485 24273 ft 346 kts 303°
2026-05-05 10:40 41.73884 27.96709 24762 ft 347 kts 303°
2026-05-05 10:40 41.75114 27.93916 25227 ft 349 kts 303°
2026-05-05 10:40 41.76347 27.91113 25682 ft 350 kts 303°
2026-05-05 10:40 41.77586 27.88295 26136 ft 352 kts 303°
2026-05-05 10:41 41.78833 27.85454 26626 ft 353 kts 303°
2026-05-05 10:41 41.80060 27.82656 27186 ft 351 kts 303°
2026-05-05 10:41 41.81291 27.79847 27766 ft 349 kts 303°
2026-05-05 10:41 41.82514 27.77051 28375 ft 346 kts 303°
2026-05-05 10:42 41.84940 27.71503 29468 ft 343 kts 303°
2026-05-05 10:42 41.86154 27.68726 29766 ft 348 kts 303°
2026-05-05 10:43 41.88673 27.62957 29961 ft 368 kts 303°
2026-05-05 10:43 41.91318 27.56882 30156 ft 386 kts 302°
2026-05-05 10:44 41.94087 27.50509 30297 ft 403 kts 302°
2026-05-05 10:44 41.96967 27.43860 30422 ft 420 kts 302°
2026-05-05 10:45 41.99952 27.36952 30597 ft 433 kts 302°
2026-05-05 10:45 42.01469 27.33435 30777 ft 437 kts 302°
2026-05-05 10:45 42.02993 27.29897 31065 ft 437 kts 302°
2026-05-05 10:45 42.04512 27.26369 31471 ft 435 kts 302°
2026-05-05 10:46 42.06036 27.22858 31839 ft 434 kts 304°
2026-05-05 10:46 42.07795 27.19572 32115 ft 432 kts 313°
2026-05-05 10:46 42.09797 27.16549 32430 ft 431 kts 314°
2026-05-05 10:46 42.11816 27.13570 32763 ft 431 kts 314°
2026-05-05 10:47 42.13837 27.10594 33094 ft 430 kts 314°
2026-05-05 10:47 42.15847 27.07617 33433 ft 429 kts 314°
2026-05-05 10:47 42.17852 27.04627 33709 ft 430 kts 314°
2026-05-05 10:47 42.19821 27.01671 33975 ft 429 kts 314°
2026-05-05 10:48 42.21846 26.98622 34044 ft 431 kts 314°
2026-05-05 10:48 42.25803 26.92639 34046 ft 429 kts 314°
2026-05-05 10:49 42.29759 26.86642 34053 ft 426 kts 314°
2026-05-05 10:49 42.33691 26.80674 34052 ft 424 kts 314°
2026-05-05 10:50 42.37536 26.74825 34055 ft 423 kts 314°
2026-05-05 10:50 42.41442 26.68873 34057 ft 423 kts 314°
2026-05-05 10:51 42.45321 26.62950 34055 ft 424 kts 314°
2026-05-05 10:51 42.49236 26.56959 34058 ft 425 kts 313°
2026-05-05 10:52 42.53079 26.50842 34047 ft 428 kts 307°
2026-05-05 10:52 42.55766 26.43802 34057 ft 435 kts 292°
2026-05-05 10:53 42.57718 26.36021 34063 ft 436 kts 291°
2026-05-05 10:53 42.59646 26.28195 34056 ft 437 kts 292°
2026-05-05 10:54 42.61597 26.20374 34053 ft 437 kts 292°
2026-05-05 10:54 42.63549 26.12599 34054 ft 437 kts 292°
2026-05-05 10:55 42.65509 26.04786 34055 ft 437 kts 292°
2026-05-05 10:55 42.67463 25.96976 34046 ft 436 kts 292°
2026-05-05 10:56 42.69405 25.89182 34055 ft 435 kts 292°
2026-05-05 10:56 42.71341 25.81387 34047 ft 434 kts 292°
2026-05-05 10:57 42.73266 25.73610 34050 ft 433 kts 292°
2026-05-05 10:57 42.75181 25.65848 34049 ft 432 kts 292°
2026-05-05 10:58 42.77088 25.58093 34054 ft 432 kts 292°
2026-05-05 10:58 42.78988 25.50339 34055 ft 432 kts 292°
2026-05-05 10:59 42.80885 25.42573 34048 ft 432 kts 292°
2026-05-05 10:59 42.82776 25.34804 34054 ft 432 kts 292°
2026-05-05 11:00 42.84660 25.27036 34059 ft 432 kts 292°
2026-05-05 11:00 42.86538 25.19269 34059 ft 431 kts 292°
2026-05-05 11:01 42.88411 25.11494 34066 ft 432 kts 292°
2026-05-05 11:01 42.90280 25.03711 34059 ft 432 kts 292°
2026-05-05 11:02 42.92144 24.95919 34066 ft 432 kts 292°
2026-05-05 11:02 42.94004 24.88122 34054 ft 432 kts 292°
2026-05-05 11:03 42.95858 24.80320 34048 ft 432 kts 292°
2026-05-05 11:03 42.97693 24.72570 34058 ft 432 kts 292°
2026-05-05 11:04 42.99532 24.64773 34045 ft 431 kts 292°
2026-05-05 11:04 43.01362 24.56994 34061 ft 430 kts 292°
2026-05-05 11:05 43.03195 24.49177 34172 ft 434 kts 292°
2026-05-05 11:05 43.04114 24.45246 34427 ft 433 kts 291°
2026-05-05 11:05 43.05026 24.41331 34742 ft 431 kts 291°
2026-05-05 11:05 43.05935 24.37428 34977 ft 431 kts 291°
2026-05-05 11:06 43.06845 24.33517 35122 ft 433 kts 291°
2026-05-05 11:06 43.07758 24.29586 35309 ft 434 kts 291°
2026-05-05 11:06 43.08668 24.25660 35570 ft 432 kts 291°
2026-05-05 11:06 43.09708 24.21815 35809 ft 429 kts 297°
2026-05-05 11:07 43.11129 24.18256 35990 ft 425 kts 304°
2026-05-05 11:07 43.14328 24.11422 36067 ft 428 kts 305°
2026-05-05 11:08 43.17535 24.04562 36065 ft 427 kts 305°
2026-05-05 11:08 43.20686 23.97699 36068 ft 424 kts 304°
2026-05-05 11:09 43.23808 23.90857 36060 ft 422 kts 304°
2026-05-05 11:09 43.26873 23.84048 36058 ft 423 kts 300°
2026-05-05 11:10 43.28893 23.76438 36048 ft 429 kts 284°
2026-05-05 11:10 43.29658 23.68281 36060 ft 431 kts 280°
2026-05-05 11:11 43.30327 23.60092 36059 ft 432 kts 280°
2026-05-05 11:11 43.31033 23.51893 36063 ft 433 kts 280°
2026-05-05 11:12 43.31755 23.43671 36059 ft 433 kts 280°
2026-05-05 11:12 43.32474 23.35449 36057 ft 434 kts 280°
2026-05-05 11:13 43.33180 23.27266 36058 ft 434 kts 280°
2026-05-05 11:13 43.33887 23.19029 36060 ft 434 kts 280°
2026-05-05 11:14 43.34589 23.10786 36063 ft 434 kts 280°
2026-05-05 11:14 43.35284 23.02555 36061 ft 434 kts 280°
2026-05-05 11:15 43.35972 22.94324 36067 ft 433 kts 280°
2026-05-05 11:15 43.36655 22.86105 36057 ft 433 kts 280°
2026-05-05 11:16 43.37382 22.77903 36052 ft 430 kts 284°
2026-05-05 11:16 43.38828 22.71434 36068 ft 424 kts 294°
2026-05-05 11:17 43.40999 22.63901 36055 ft 424 kts 294°
2026-05-05 11:17 43.43142 22.56358 36052 ft 423 kts 294°
2026-05-05 11:18 43.45247 22.48805 36058 ft 422 kts 294°
2026-05-05 11:18 43.47338 22.41263 36054 ft 422 kts 294°
2026-05-05 11:19 43.49358 22.33677 36049 ft 423 kts 291°
2026-05-05 11:19 43.51077 22.25916 36055 ft 424 kts 289°
2026-05-05 11:20 43.52731 22.18117 36054 ft 424 kts 289°
2026-05-05 11:20 43.54406 22.10301 36046 ft 425 kts 289°
2026-05-05 11:21 43.56084 22.02539 36057 ft 426 kts 289°
2026-05-05 11:21 43.57777 21.94715 36044 ft 426 kts 289°
2026-05-05 11:22 43.59471 21.86861 36054 ft 426 kts 289°
2026-05-05 11:22 43.61156 21.79022 36040 ft 426 kts 289°
2026-05-05 11:23 43.62834 21.71181 36049 ft 426 kts 289°
2026-05-05 11:23 43.64507 21.63335 36042 ft 426 kts 288°
2026-05-05 11:24 43.66171 21.55500 36044 ft 425 kts 288°
2026-05-05 11:24 43.67827 21.47674 36047 ft 424 kts 288°
2026-05-05 11:25 43.69475 21.39854 36039 ft 424 kts 288°
2026-05-05 11:25 43.71118 21.32035 36044 ft 423 kts 288°
2026-05-05 11:26 43.72750 21.24230 36043 ft 422 kts 288°
2026-05-05 11:26 43.74362 21.16500 36038 ft 422 kts 288°
2026-05-05 11:27 43.75986 21.08682 36043 ft 421 kts 288°
2026-05-05 11:27 43.77598 21.00886 36039 ft 421 kts 288°
2026-05-05 11:28 43.79205 20.93086 36049 ft 421 kts 287°
2026-05-05 11:28 43.80806 20.85287 36048 ft 421 kts 288°
2026-05-05 11:29 43.82396 20.77513 36048 ft 422 kts 287°
2026-05-05 11:29 43.84001 20.69634 36044 ft 423 kts 287°
2026-05-05 11:30 43.85581 20.61844 36044 ft 423 kts 287°
2026-05-05 11:30 43.87169 20.53992 36045 ft 423 kts 287°
2026-05-05 11:31 43.88751 20.46131 36047 ft 423 kts 287°
2026-05-05 11:31 43.90329 20.38262 36047 ft 423 kts 287°
2026-05-05 11:32 43.91902 20.30386 36041 ft 423 kts 287°
2026-05-05 11:32 43.93469 20.22510 36047 ft 423 kts 286°
2026-05-05 11:33 43.95032 20.14623 36041 ft 424 kts 286°
2026-05-05 11:33 43.95820 20.10639 35475 ft 434 kts 286°
2026-05-05 11:33 43.96606 20.06651 34826 ft 434 kts 286°
2026-05-05 11:33 43.97404 20.02598 34061 ft 435 kts 286°
2026-05-05 11:34 43.98195 19.98563 33451 ft 431 kts 286°
2026-05-05 11:34 43.98977 19.94570 32850 ft 426 kts 286°
2026-05-05 11:34 43.99750 19.90616 32316 ft 421 kts 285°
2026-05-05 11:34 44.00511 19.86712 31753 ft 417 kts 285°
2026-05-05 11:35 44.01265 19.82843 31225 ft 413 kts 286°
2026-05-05 11:35 44.02006 19.79029 30695 ft 410 kts 286°
2026-05-05 11:35 44.02746 19.75217 30177 ft 406 kts 286°
2026-05-05 11:35 44.03477 19.71441 29604 ft 403 kts 286°
2026-05-05 11:36 44.04203 19.67683 29023 ft 400 kts 285°
2026-05-05 11:36 44.04918 19.63978 28507 ft 394 kts 285°
2026-05-05 11:36 44.05624 19.60309 28008 ft 390 kts 285°
2026-05-05 11:36 44.06322 19.56677 27467 ft 388 kts 285°
2026-05-05 11:37 44.07013 19.53073 26967 ft 384 kts 285°
2026-05-05 11:37 44.07700 19.49484 26466 ft 381 kts 285°
2026-05-05 11:37 44.08378 19.45934 25965 ft 379 kts 285°
2026-05-05 11:37 44.09051 19.42408 25485 ft 376 kts 285°
2026-05-05 11:38 44.09718 19.38905 25001 ft 374 kts 285°
2026-05-05 11:38 44.10382 19.35412 24519 ft 372 kts 285°
2026-05-05 11:38 44.11042 19.31934 24028 ft 371 kts 285°
2026-05-05 11:38 44.11690 19.28511 23529 ft 371 kts 285°
2026-05-05 11:39 44.12345 19.25050 22975 ft 369 kts 284°
2026-05-05 11:39 44.12994 19.21607 22476 ft 366 kts 284°
2026-05-05 11:39 44.13574 19.18166 21973 ft 364 kts 276°
2026-05-05 11:39 44.13540 19.14663 21501 ft 362 kts 265°
2026-05-05 11:40 44.13291 19.11189 21005 ft 360 kts 264°
2026-05-05 11:40 44.13014 19.07743 20542 ft 358 kts 263°
2026-05-05 11:40 44.12737 19.04305 20078 ft 356 kts 263°
2026-05-05 11:40 44.12469 19.00892 19621 ft 354 kts 263°
2026-05-05 11:41 44.12209 18.97499 19167 ft 352 kts 263°
2026-05-05 11:41 44.11952 18.94123 18723 ft 350 kts 263°
2026-05-05 11:41 44.11702 18.90759 18260 ft 349 kts 263°
2026-05-05 11:41 44.11456 18.87396 17731 ft 348 kts 263°
2026-05-05 11:42 44.11210 18.84060 17257 ft 345 kts 263°
2026-05-05 11:42 44.10966 18.80750 16806 ft 343 kts 263°
2026-05-05 11:42 44.10742 18.77737 16376 ft 341 kts 262°
2026-05-05 11:42 44.10499 18.74472 15934 ft 338 kts 262°
2026-05-05 11:43 44.10257 18.71232 15503 ft 336 kts 262°
2026-05-05 11:43 44.10015 18.68005 15069 ft 334 kts 262°
2026-05-05 11:43 44.09773 18.64801 14626 ft 333 kts 262°
2026-05-05 11:43 44.09530 18.61600 14195 ft 331 kts 261°
2026-05-05 11:44 44.09288 18.58415 13753 ft 330 kts 261°
2026-05-05 11:44 44.09047 18.55244 13285 ft 329 kts 262°
2026-05-05 11:44 44.08806 18.52082 12819 ft 328 kts 261°
2026-05-05 11:44 44.08793 18.51902 12796 ft 328 kts 262°
2026-05-05 11:47 44.08567 18.48958 12377 ft 326 kts 261°
2026-05-05 11:48 44.08090 18.42763 11885 ft 314 kts 262°
2026-05-05 11:48 44.07862 18.39815 11720 ft 305 kts 261°
2026-05-05 11:48 44.07637 18.36937 11579 ft 294 kts 261°
2026-05-05 11:49 44.07423 18.34165 11499 ft 283 kts 262°
2026-05-05 11:49 44.07215 18.31482 11358 ft 276 kts 261°
2026-05-05 11:49 44.07010 18.28866 11228 ft 267 kts 261°
2026-05-05 11:49 44.06809 18.26340 11089 ft 260 kts 261°
2026-05-05 11:50 44.06626 18.23904 11074 ft 248 kts 266°
2026-05-05 11:50 44.06947 18.21546 10809 ft 254 kts 294°
2026-05-05 11:50 44.08014 18.19592 10576 ft 255 kts 315°
2026-05-05 11:50 44.09550 18.18356 10228 ft 259 kts 343°
2026-05-05 11:51 44.11213 18.17593 9952 ft 247 kts 322°
2026-05-05 11:51 44.12233 18.15795 9451 ft 237 kts 281°
2026-05-05 11:51 44.12118 18.13697 9200 ft 215 kts 240°
2026-05-05 11:51 44.11068 18.12462 9103 ft 193 kts 194°
2026-05-05 11:52 44.09750 18.12520 8924 ft 187 kts 178°
2026-05-05 11:52 44.08575 18.12026 8831 ft 176 kts 224°
2026-05-05 11:52 44.07700 18.10794 8590 ft 185 kts 218°
2026-05-05 11:52 44.06614 18.09838 8396 ft 186 kts 204°
2026-05-05 11:53 44.05397 18.09312 8116 ft 186 kts 192°
2026-05-05 11:53 44.04069 18.09124 7675 ft 195 kts 185°
2026-05-05 11:53 44.02699 18.09007 7302 ft 195 kts 185°
2026-05-05 11:53 44.01371 18.08908 7051 ft 187 kts 185°
2026-05-05 11:54 44.00101 18.08818 6794 ft 177 kts 185°
2026-05-05 11:54 43.98902 18.09022 6597 ft 176 kts 166°
2026-05-05 11:54 43.97715 18.09567 6292 ft 181 kts 165°
2026-05-05 11:54 43.96524 18.10133 5989 ft 180 kts 166°
2026-05-05 11:55 43.95349 18.10694 5787 ft 180 kts 165°
2026-05-05 11:55 43.94174 18.11248 5548 ft 174 kts 166°
2026-05-05 11:55 43.93024 18.11783 5477 ft 175 kts 164°
2026-05-05 11:55 43.91870 18.12329 5168 ft 178 kts 163°
2026-05-05 11:56 43.90674 18.12918 4830 ft 183 kts 159°
2026-05-05 11:56 43.89806 18.14152 4680 ft 184 kts 124°
2026-05-05 11:56 43.89060 18.15683 4397 ft 200 kts 130°
2026-05-05 11:56 43.88384 18.17425 4170 ft 207 kts 118°
2026-05-05 11:57 43.87658 18.19195 3813 ft 207 kts 124°
2026-05-05 11:57 43.87002 18.20926 3464 ft 208 kts 118°
2026-05-05 11:57 43.86378 18.22661 3178 ft 197 kts 117°
2026-05-05 11:57 43.85777 18.24287 2929 ft 185 kts 118°
2026-05-05 11:58 43.85212 18.25788 2704 ft 169 kts 119°
2026-05-05 11:58 43.84693 18.27171 2483 ft 154 kts 121°
2026-05-05 11:58 43.84211 18.28460 2240 ft 147 kts 124°
2026-05-05 11:58 43.83762 18.29668 1905 ft 135 kts 124°
2026-05-05 11:59 43.83315 18.30881 1840 ft 149 kts 122°
2026-05-05 11:59 43.82832 18.32160 1707 ft 149 kts 122°
2026-05-05 11:59 43.82392 18.33329 1700 ft 112 kts 118°
2026-05-05 11:59 43.82135 18.34017 1709 ft 49 kts 117°
2026-05-05 12:00 43.82049 18.34243 1710 ft 19 kts 117°
2026-05-05 12:00 43.81989 18.34402 1712 ft 18 kts 117°
2026-05-05 12:00 43.81942 18.34540 1714 ft 12 kts 95°
2026-05-05 12:00 43.81995 18.34617 1714 ft 12 kts 24°
2026-05-05 12:01 43.82067 18.34614 1714 ft 10 kts 331°
2026-05-05 12:01 43.82112 18.34549 1713 ft 9 kts 299°
2026-05-05 12:01 43.82141 18.34471 1710 ft 10 kts 298°
2026-05-05 12:01 43.82181 18.34366 1711 ft 15 kts 298°
2026-05-05 12:02 43.82236 18.34223 1710 ft 18 kts 297°
2026-05-05 12:02 43.82294 18.34068 1709 ft 17 kts 296°
2026-05-05 12:02 43.82343 18.33932 1707 ft 14 kts 297°
2026-05-05 12:02 43.82384 18.33824 1706 ft 10 kts 297°
2026-05-05 12:03 43.82415 18.33762 1708 ft 6 kts 322°
2026-05-05 12:03 43.82447 18.33761 1705 ft 3 kts 17°
2026-05-05 12:03 43.82459 18.33764 1705 ft 2 kts 10°
2026-05-05 12:03 43.82473 18.33754 1707 ft 2 kts 312°
2026-05-05 12:04 43.82473 18.33729 1705 ft 3 kts 262°
2026-05-05 12:04 43.82463 18.33684 1706 ft 7 kts 253°
2026-05-05 12:04 43.82463 18.33622 1704 ft 5 kts 288°
2026-05-05 12:04 43.82469 18.33600 1703 ft 2 kts 292°
2026-05-05 12:05 43.82479 18.33591 1704 ft 2 kts 342°
2026-05-05 12:05 43.82493 18.33594 1703 ft 2 kts 12°
2026-05-05 12:05 43.82515 18.33606 1703 ft 5 kts 26°
2026-05-05 12:05 43.82534 18.33619 1703 ft 1 kts 27°
2026-05-05 12:06 43.82535 18.33620 1703 ft 0 kts 27°